User: anonymous   Login
Location: Unspecified
(0.0000°N, 0.0000°E)
Time: 03:01:06
(UTC+00:00)
Language:

STARLINK-31055 - Orbit

View from above orbital plane
View from above orbital plane
View from above satellite
View from above satellite

Ground track
Ground track

The orbit is defined by the following mean orbital elements,

1 58539U          26145.48291907 +.00000000 +00000-0 +81164-4 0 00005
2 58539  53.1612  65.2753 0000784  97.6199 262.4893 15.34406669    06
Epoch (UTC): 25 May 2026 11:35:24
Eccentricity: 0.0000784
inclination: 53.1612°
perigee height: 462 km
apogee height: 463 km
right ascension of ascending node: 65.2753°
argument of perigee: 97.6199°
revolutions per day: 15.34406669
mean anomaly at epoch: 262.4893°

The dashed part of the orbit path shows where the satellite is in the earth's shadow,  

DLR